Starlink 30956

operational
NORAD ID: 58481 Int'l Des: 2023-186 Owner: SPXS Country: US Constellation: starlink
LEOCIRCULAR

About Starlink 30956

Description loading...

Live Position

Loading 3D Globe...

Upcoming Passes

Altitude History

Altitude vs Time

uPlot chart will show altitude changes over time

Two-Line Element Set

1 58481U 23186J 25352.38241666 .00000104 00000-0 22784-4 0 9991
2 58481 43.0019 124.5816 0001248 271.3833 88.6867 15.02539852113901
Epoch: Dec 18, 2025 • Age: 22 hours

Current Status

Altitude 568.7 km
Velocity 7.58 km/s
Sub-Earth Point -35.96°S, 128.04°W
Launch Date Dec 3, 2023
Age 2 years
Type internet

Technical Details

Classification Payload
Mass 730.00 kg
Dry Mass 700.00 kg
Total Mass 730.00 kg
Length 0.30 m
Diameter 4.10 m
Span 29.00 m
Shape Box + pan
Manufacturer SPXS
Bus Type Starlink V2M
Phase Status In Orbit
Owner/State SPXS/US

Large Constellations

Loading constellations...